Location: Great Malvern
(52.1167°N, 2.3167°W)
Time: 11:32:26
(UTC+00:00)

Lacrosse 5 rocket - Pass Details

Date: 18 September 2020
Orbit: 460 x 636 km, 57.0° (Epoch: 30 October)

Event Time Altitude Azimuth Distance (km) Brightness Sun altitude
Rises 23:03:53 0° 298° (WNW) 2,864 5.5 -35.0°
Reaches altitude 10° 23:06:08 10° 298° (WNW) 1,979 4.6 -35.2°
Enters shadow 23:06:29 12° 298° (WNW) 1,845 4.4 -35.2°
